Weather History for KHRI - December, 2013

Change the Weather History Date:

Saturday, December 7, 2013

  Actual Average Record
Temperature  
Mean Temperature 7 °F -  
Max Temperature 19 °F 43 °F 68 °F (1938)
Min Temperature -5 °F 27 °F -5 °F (2013)
Degree Days  
Heating Degree Days 58    
Moisture  
Dew Point -5 °F    
Average Humidity 52    
Maximum Humidity 76    
Minimum Humidity 33    
Precipitation  
Precipitation 0.00 in - - ()
Sea Level Pressure  
Sea Level Pressure 30.39 in    
Wind  
Wind Speed 12 mph (NE)    
Max Wind Speed 17 mph    
Max Gust Speed 23 mph    
Visibility 10 miles    
Events      
Averages and records for this station are not official NWS values.
T = Trace of Precipitation, MM = Missing Value Source: NWS Daily Summary

Daily Weather History Graph

Daily Weather History Graph

Search for Another Location

Airport or City:

Trip Planner

Search our weather history database for the weather conditions in past years. The results will help you decide how hot, cold, wet, or windy it might be!

Date:

Astronomy

Dec. 07, 2013 Rise Set
Actual Time 7:24 AM PST 4:12 PM PST
Civil Twilight 6:50 AM PST 4:46 PM PST
Nautical Twilight 6:13 AM PST 5:24 PM PST
Astronomical Twilight 5:36 AM PST 6:00 PM PST
Moon 11:01 AM PST (12/7) 10:12 PM PST (12/7)
Length of Visible Light 9h 55m
Length of Day
8h 47m
Waxing Crescent, 30% of the Moon is Illuminated
Dec 7
Waxing Crescent
Dec 9
First Quarter
Dec 17
Full
Dec 25
Last Quarter
Jan 1
New

Hourly Weather History & Observations

Time (PST) Temp. Windchill Dew Point Humidity Pressure Visibility Wind Dir Wind Speed Gust Speed Precip Events Conditions
12:53 AM 17.1 °F 1.5 °F 1.9 °F 52% 30.19 in 10.0 mi North 17.3 mph - N/A   Overcast
1:53 AM 16.0 °F 0.6 °F 1.0 °F 52% 30.22 in 10.0 mi North 16.1 mph 23.0 mph N/A   Overcast
2:53 AM 16.0 °F 2.3 °F -2.0 °F 45% 30.24 in 10.0 mi NNE 12.7 mph - N/A   Overcast
3:53 AM 15.1 °F 0.5 °F -4.0 °F 43% 30.25 in 10.0 mi North 13.8 mph - N/A   Overcast
4:53 AM 15.1 °F 1.1 °F -5.1 °F 41% 30.27 in 10.0 mi North 12.7 mph - N/A   Overcast
5:53 AM 14.0 °F 1.2 °F -6.0 °F 41% 30.30 in 10.0 mi North 10.4 mph 19.6 mph N/A   Overcast
6:53 AM 12.9 °F -0.2 °F -6.0 °F 43% 30.32 in 10.0 mi NNE 10.4 mph - N/A   Mostly Cloudy
7:53 AM 12.0 °F -0.4 °F -6.0 °F 44% 30.35 in 10.0 mi North 9.2 mph - N/A   Clear
8:53 AM 15.1 °F 2.5 °F -6.0 °F 39% 30.38 in 10.0 mi North 10.4 mph - N/A   Clear
9:53 AM 16.0 °F 3.6 °F -6.0 °F 38% 30.40 in 10.0 mi NNE 10.4 mph - N/A   Clear
10:53 AM 17.1 °F 5.8 °F -4.0 °F 39% 30.40 in 10.0 mi NNW 9.2 mph - N/A   Clear
11:53 AM 18.0 °F 7.7 °F -4.0 °F 38% 30.39 in 10.0 mi North 8.1 mph - N/A   Clear
12:53 PM 19.9 °F 14.9 °F -5.1 °F 33% 30.39 in 10.0 mi North 3.5 mph - N/A   Clear
1:53 PM 18.0 °F 6.1 °F -0.0 °F 45% 30.40 in 10.0 mi SSW 10.4 mph - N/A   Clear
2:53 PM 16.0 °F 4.4 °F -0.0 °F 49% 30.42 in 10.0 mi SSW 9.2 mph - N/A   Clear
3:53 PM 12.0 °F 0.5 °F -0.9 °F 56% 30.43 in 10.0 mi SSW 8.1 mph - N/A   Clear
4:53 PM 6.1 °F -6.8 °F -4.0 °F 63% 30.45 in 10.0 mi South 8.1 mph - N/A   Clear
5:53 PM 3.0 °F -11.5 °F -7.1 °F 63% 30.48 in 10.0 mi SSE 9.2 mph - N/A   Clear
6:53 PM 1.0 °F -11.7 °F -7.1 °F 69% 30.49 in 10.0 mi SE 6.9 mph - N/A   Clear
7:53 PM -0.0 °F -14.2 °F -8.0 °F 69% 30.50 in 10.0 mi SSE 8.1 mph - N/A   Clear
8:53 PM -2.0 °F -10.1 °F -9.0 °F 72% 30.50 in 10.0 mi ENE 3.5 mph - N/A   Clear
9:53 PM -5.1 °F -17.6 °F -11.0 °F 76% 30.50 in 10.0 mi East 5.8 mph - N/A   Clear
10:53 PM -2.9 °F -17.7 °F -11.0 °F 68% 30.50 in 10.0 mi ESE 8.1 mph - N/A   Clear
11:53 PM -4.0 °F -12.4 °F -11.0 °F 72% 30.51 in 10.0 mi ENE 3.5 mph - N/A   Clear